DW2762 Weather Reports


Display with metric or nautical units.
time (UTC)temp
F
wind
direction
speed
MPH
gust
MPH
rain 1hr
in
rain 24hr
in
rain mn
in
humidity
%
barometer
mb
20260506033111 51 321 0.0 0.0 0.00 0.00 0.00 86 1007.5
20260506031611 51 321 0.0 0.0 0.00 0.00 0.00 86 1007.5
20260506024611 52 321 0.0 0.0 0.00 0.00 0.00 84 1007.2
20260506021611 53 321 0.0 1.0 0.00 0.00 0.00 82 1007.3
20260506020111 53 321 0.0 0.0 0.00 0.00 0.00 82 1007.3
20260506014610 53 321 0.0 0.0 0.00 0.00 0.00 80 1007.1
20260506013111 54 321 0.0 0.0 0.00 0.00 0.00 79 1006.9
20260506011611 55 321 0.0 1.0 0.00 0.00 0.00 78 1006.7
20260506010110 56 323 0.0 2.0 0.00 0.00 0.00 77 1006.5
20260506003110 57 331 0.0 0.0 0.00 0.00 0.00 75 1006.4
20260506001610 57 331 0.0 1.0 0.00 0.00 0.00 74 1006.1
20260506000110 58 331 1.0 3.0 0.00 0.00 0.00 73 1006.3
20260505234610 58 103 0.0 0.0 0.00 0.00 0.00 72 1006.3
20260505231610 59 103 0.0 3.0 0.00 0.00 0.00 70 1005.9
20260505230109 59 103 0.0 0.0 0.00 0.00 0.00 69 1005.9
20260505224611 59 123 1.0 4.0 0.00 0.00 0.00 70 1005.9
20260505223109 60 92 1.0 4.0 0.00 0.00 0.00 69 1005.8
20260505221609 60 197 1.0 4.0 0.00 0.00 0.00 69 1005.9
20260505214609 60 96 1.0 8.0 0.00 0.00 0.00 68 1005.5
20260505213109 59 148 1.0 5.0 0.00 0.00 0.00 68 1005.7
20260505211609 59 175 1.0 5.0 0.00 0.00 0.00 68 1005.8
20260505210109 59 61 0.0 5.0 0.00 0.00 0.00 67 1005.7
20260505204609 60 188 0.0 3.0 0.00 0.00 0.00 65 1005.8
20260505203110 60 138 0.0 2.0 0.00 0.00 0.00 64 1005.8
20260505201609 61 99 1.0 7.0 0.00 0.00 0.00 62 1005.8
20260505200108 61 237 0.0 4.0 0.00 0.00 0.00 62 1005.8
20260505194608 62 108 1.0 3.0 0.00 0.00 0.00 61 1005.8
20260505193108 62 43 1.0 8.0 0.00 0.00 0.00 60 1005.7
20260505191608 63 110 0.0 4.0 0.00 0.00 0.00 60 1005.7
20260505184609 65 88 3.0 5.0 0.00 0.00 0.00 58 1005.7
20260505181608 66 311 3.0 8.0 0.00 0.00 0.00 55 1005.7
20260505180108 67 188 7.0 11.0 0.00 0.00 0.00 54 1005.5
20260505174608 68 169 4.0 13.0 0.00 0.00 0.00 52 1005.5
20260505173108 70 139 7.0 13.0 0.00 0.00 0.00 51 1005.3
20260505171608 71 150 5.0 12.0 0.00 0.00 0.00 48 1005.4
20260505170112 72 123 5.0 12.0 0.00 0.00 0.00 47 1005.3
20260505164612 74 176 5.0 13.0 0.00 0.00 0.00 45 1005.1
20260505163112 75 131 4.0 12.0 0.00 0.00 0.00 44 1005.1
20260505161612 76 131 5.0 16.0 0.00 0.00 0.00 42 1005.0
20260505160112 77 142 4.0 13.0 0.00 0.00 0.00 40 1005.1
20260505153112 78 281 2.0 12.0 0.00 0.00 0.00 35 1005.4
20260505150111 78 188 5.0 14.0 0.00 0.00 0.00 34 1005.6
20260505140111 78 149 3.0 9.0 0.00 0.00 0.00 37 1006.4
20260505130110 77 241 3.0 13.0 0.00 0.00 0.00 42 1007.2
20260505124610 77 169 6.0 12.0 0.00 0.00 0.00 45 1007.7
20260505123110 75 142 7.0 12.0 0.00 0.00 0.00 44 1007.9
20260505121610 74 171 8.0 16.0 0.00 0.00 0.00 45 1008.2
20260505114610 74 145 6.0 11.0 0.00 0.00 0.00 46 1008.2
20260505113110 74 114 4.0 16.0 0.00 0.00 0.00 47 1008.4
20260505111610 73 136 6.0 12.0 0.00 0.00 0.00 47 1008.3
20260505110111 73 141 8.0 16.0 0.00 0.00 0.00 47 1008.5
20260505101610 72 82 2.0 9.0 0.00 0.00 0.00 49 1008.9
20260505100110 71 88 2.0 8.0 0.00 0.00 0.00 52 1009.0
20260505094609 69 194 4.0 9.0 0.00 0.00 0.00 54 1009.1
20260505093109 68 129 5.0 9.0 0.00 0.00 0.00 54 1009.2
20260505091609 67 164 5.0 9.0 0.00 0.00 0.00 54 1009.4
20260505083109 65 140 4.0 8.0 0.00 0.00 0.00 57 1009.8
20260505081611 64 167 3.0 7.0 0.00 0.00 0.00 57 1009.9
20260505080109 64 146 4.0 8.0 0.00 0.00 0.00 55 1009.8
20260505074609 62 156 2.0 6.0 0.00 0.00 0.00 56 1009.9
20260505071609 61 156 2.0 4.0 0.00 0.00 0.00 58 1009.9
20260505070109 60 164 2.0 5.0 0.00 0.00 0.00 60 1010.1
20260505064609 60 167 2.0 8.0 0.00 0.00 0.00 57 1010.2
20260505063108 60 158 4.0 9.0 0.00 0.00 0.00 56 1010.2
20260505061608 60 115 2.0 5.0 0.00 0.00 0.00 57 1010.3
20260505060110 60 84 2.0 7.0 0.00 0.00 0.00 56 1010.2
20260505054609 59 73 5.0 9.0 0.00 0.00 0.00 55 1010.0
20260505053108 58 69 5.0 8.0 0.00 0.00 0.00 56 1010.0
20260505051608 56 105 5.0 8.0 0.00 0.00 0.00 58 1009.9
20260505050108 53 76 2.0 3.0 0.00 0.00 0.00 63 1010.1
20260505041613 51 34 3.0 8.0 0.00 0.00 0.00 66 1010.0
20260505034613 50 337 2.0 4.0 0.00 0.00 0.00 67 1010.1